Regional Weather Roundup
Issued by NWS Northern Indiana

Home | Current Version | Previous Version | Text Only | Print | Product List | Glossary On
Versions: 1 2 3 4 5 6 7 8 9 10 11 12 13 14 15 16 17 18 19 20 21 22 23 24 25 26 27 28 29 30 31 32 33 34 35 36 37 38 39 40 41 42 43 44 45 46 47 48 49 50
000
ASUS43 KIWX 020210
RWRIWX

KIWX WEATHER ROUNDUP
NATIONAL WEATHER SERVICE NORTHERN INDIANA
1000 PM EDT WED APR 01 2015

NOTE: "FAIR" INDICATES FEW OR NO CLOUDS BELOW 12,000 FEET WITH NO
SIGNIFICANT WEATHER AND/OR OBSTRUCTIONS TO VISIBILITY.

* THESE STATIONS ARE NOT UNDER NWS QUALITY CONTROL. THEY ALSO MAY NOT
  REPORT WEATHER SUCH AS PRECIPITATION OR FOG.

INZ001>027-020300-
NORTHERN INDIANA

CITY           SKY/WX    TMP DP  RH WIND       PRES   REMARKS
GARY*          PTCLDY    64  28  25 S9        29.92S
VALPARAISO     PTCLDY    58  35  42 S9        29.95R
MICHIGAN CITY* PTCLDY    59  28  31 S8        29.95R
LAPORTE*       PTCLDY    58  37  44 S7        29.96R
KNOX*          CLEAR     55  14  19 S12       29.95S
SOUTH BEND     PTCLDY    61  33  35 S13       29.97R
GOSHEN         CLEAR     58  36  43 S13       29.98R
MONTICELLO*    PTCLDY    57  38  49 SE7       29.97S
LOGANSPORT*    PTCLDY    52  36  54 S10       30.00R
ROCHESTER*     CLEAR     57  36  44 S6        30.00R
WARSAW*        CLEAR     57  36  44 S5        29.99S
ANGOLA*        CLEAR     54  36  50 S3        30.00R
FORT WAYNE     PTCLDY    51  38  60 S10       30.03R
HUNTINGTON*    CLEAR     55  31  40 S5        30.01S
PERU/GRISSOM   PTCLDY    56  37  49 S13       29.98F
MARION*        PTCLDY    53  35  49 S10       30.02F

$$
INZ028>050-020300-
CENTRAL INDIANA

CITY           SKY/WX    TMP DP  RH WIND       PRES   REMARKS
LAFAYETTE      CLEAR     57  36  45 S8        29.97S
KOKOMO*        PTCLDY    55  37  50 S13       30.00F
MUNCIE*        PTCLDY    58  34  40 S7        30.04R
INDIANAPOLIS   PTCLDY    59  33  37 S10       30.01R

$$
MIZ043>046-050>051-056>058-064>065-071>073-077>080-020300-
SOUTHWEST LOWER MICHIGAN

CITY           SKY/WX    TMP DP  RH WIND       PRES   REMARKS
BATTLE CREEK   PTCLDY    58  36  43 S13       29.96S
BENTON HARBOR  PTCLDY    60  36  40 S12       29.93R
COLDWATER*     PTCLDY    55  34  45 S7        29.98S
HILLSDALE*     PTCLDY    56  35  45 S6        30.00S
HOLLAND        PTCLDY    58  38  47 S9        29.92R
GRAND RAPIDS   MOCLDY    55  37  50 S10       29.92S
KALAMAZOO      PTCLDY    63  37  38 S9        29.96R
STURGIS*       CLEAR     54  37  54 S9        29.98S
THREE RIVERS*  FAIR      57  36  45 S12       29.97S

$$
OHZ001>008-015>018-024>025-020300-
NORTHWEST OHIO

CITY           SKY/WX    TMP DP  RH WIND       PRES   REMARKS
DEFIANCE       CLEAR     58  34  40 S9        30.02S
FINDLAY        CLEAR     49  34  56 S8        30.05R
TOLEDO EXPRESS CLEAR     54  34  46 S6        30.02S
TOLEDO METCALF CLEAR     47  36  65 S8        30.03F
LIMA           CLEAR     50  33  52 S7        30.05S

$$
AND FOR LAKE MICHIGAN COASTAL AND OPEN LAKE BUOY OBSERVATIONS

STATION/POSITION TEMP    WIND        PRES    VSBY  WAVE
                 AIR SEA DIR/SP/G                  HT/PER
                 (F)     (DEG/KT/KT) (MB)    (MI)  (FT/S)
CALUMET HARBOR    64     170/ 11/ 18   N/A
MICHIGAN CITY     62     150/ 10/ 15   N/A
BURNS HARBOR      62     180/ 10/ 16 1013.9S
SAINT JOSEPH      61     170/  4/ 12 1013.5S

$$
&&



USA.gov is the U.S. government's official web portal to all federal, state and local government web resources and services.